Reus Arpt, Spain

5:11 AM CET on February 20, 2017 (GMT +0100)
Reus Air Base

Weather History for LERS - January, 2013

Change the Weather History Date:

Sunday, January 6, 2013

  Actual Average Record
Temperature  
Mean Temperature 50 °F -  
Max Temperature 66 °F 55 °F 69 °F (2008)
Min Temperature 35 °F 39 °F 27 °F (2017)
Degree Days  
Heating Degree Days 14    
Moisture  
Dew Point 39 °F    
Average Humidity 63    
Maximum Humidity 87    
Minimum Humidity 34    
Precipitation  
Precipitation 0.00 in - - ()
Sea Level Pressure  
Sea Level Pressure 30.28 in    
Wind  
Wind Speed 1 mph ()    
Max Wind Speed 10 mph    
Max Gust Speed -    
Averages and records for this station are not official NWS values.
T = Trace of Precipitation, MM = Missing Value Source: Averaged Metar Reports

Daily Weather History Graph

Daily Weather History Graph

Search for Another Location

Airport or City:

Trip Planner

Search our weather history database for the weather conditions in past years. The results will help you decide how hot, cold, wet, or windy it might be!

Date:

Astronomy

Jan. 06, 2013 Rise Set
Actual Time 8:20 AM CET 5:41 PM CET
Civil Twilight 7:49 AM CET 6:12 PM CET
Nautical Twilight 7:15 AM CET 6:47 PM CET
Astronomical Twilight 6:42 AM CET 7:20 PM CET
Moon 2:16 AM CET (1/6) 1:00 PM CET (1/6)
Length of Visible Light 10h 22m
Length of Day
9h 21m
Waning Crescent, 36% of the Moon is Illuminated
Jan 6
Waning Crescent
Jan 11
New
Jan 19
First Quarter
Jan 27
Full
Feb 3
Last Quarter

Hourly Weather History & Observations

Time (CET) Temp. Windchill Dew Point Humidity Pressure Visibility Wind Dir Wind Speed Gust Speed Precip Events Conditions
7:00 AM 37.4 °F - 32.0 °F 81% 30.27 in - Calm Calm - N/A   Clear
7:30 AM 35.6 °F - 32.0 °F 87% 30.27 in - Variable 1.2 mph - N/A   Clear
8:00 AM 39.2 °F - 33.8 °F 81% 30.30 in - Calm Calm - N/A   Clear
8:30 AM 37.4 °F - 32.0 °F 81% 30.30 in - Calm Calm - N/A   Clear
9:00 AM 41.0 °F - 33.8 °F 76% 30.30 in - Variable 1.2 mph - N/A   Clear
9:30 AM 42.8 °F - 37.4 °F 81% 30.30 in - Variable 1.2 mph - N/A   Clear
10:00 AM 50.0 °F - 41.0 °F 71% 30.33 in - Variable 2.3 mph - N/A   Clear
11:00 AM 55.4 °F - 41.0 °F 58% 30.33 in - Variable 2.3 mph - N/A   Clear
11:30 AM 59.0 °F - 37.4 °F 45% 30.33 in - Variable 2.3 mph - N/A   Clear
12:00 PM 62.6 °F - 39.2 °F 42% 30.33 in - Calm Calm - N/A   Clear
12:30 PM 62.6 °F - 39.2 °F 42% 30.33 in - Calm Calm - N/A   Clear
1:00 PM 64.4 °F - 35.6 °F 34% 30.30 in - Calm Calm - N/A   Clear
1:30 PM 64.4 °F - 37.4 °F 37% 30.30 in - Calm Calm - N/A   Clear
2:00 PM 66.2 °F - 39.2 °F 37% 30.27 in - Variable 2.3 mph - N/A   Clear
2:30 PM 64.4 °F - 39.2 °F 40% 30.27 in - South 3.5 mph - N/A   Clear
3:00 PM 64.4 °F - 39.2 °F 40% 30.24 in - SSE 3.5 mph - N/A   Clear
3:30 PM 64.4 °F - 39.2 °F 40% 30.24 in - South 3.5 mph - N/A   Clear
4:00 PM 62.6 °F - 42.8 °F 48% 30.24 in - South 4.6 mph - N/A   Clear
4:30 PM 62.6 °F - 42.8 °F 48% 30.27 in - South 4.6 mph - N/A   Clear
5:00 PM 60.8 °F - 44.6 °F 55% 30.27 in - Variable 2.3 mph - N/A   Clear
5:30 PM 59.0 °F - 44.6 °F 59% 30.27 in - Variable 1.2 mph - N/A   Clear
6:00 PM 53.6 °F - 44.6 °F 72% 30.27 in - Calm Calm - N/A   Clear
6:30 PM 50.0 °F - 44.6 °F 82% 30.27 in - Calm Calm - N/A   Clear
7:00 PM 48.2 °F - 42.8 °F 82% 30.27 in - Variable 2.3 mph - N/A   Clear
7:30 PM 48.2 °F - 42.8 °F 82% 30.27 in - Variable 1.2 mph - N/A   Clear
8:00 PM 46.4 °F - 41.0 °F 81% 30.27 in - Variable 1.2 mph - N/A   Clear
8:30 PM 44.6 °F - 41.0 °F 87% 30.27 in - Variable 2.3 mph - N/A   Clear
9:00 PM 41.0 °F 39.0 °F 37.4 °F 87% 30.27 in - NNE 3.5 mph - N/A   Clear
9:30 PM 48.2 °F - 39.2 °F 71% 30.27 in - NNE 10.4 mph - N/A   Clear
10:00 PM 46.4 °F - 37.4 °F 71% 30.27 in - Variable 1.2 mph - N/A   Clear